Aérodrome :
LOGIN :

S'inscrire | Disclaimer

   EN    FR    IT 

 










Légende :    VFR   VFR Marginal   IFR   IFR Intensif   IFR Très Intensif
Visi : 
Plafond : 
>= 8 km
>= 3000ft
5 à 8 km
1000 à 3000 ft
1500m à 5 km
500 à 1000 ft
800 à 1500m
200 à 500 ft
< 800m
< 200 ft
Symboles :   Orages  Brouillard  Fortes neiges  Fortes précipitations  Vent > 20 kt
SIGMETs :   Divers  Orages  Givrage  Turbulence  Onde Orograph.  Cendres Volcan.







- Altitude de l'aérodrome : 1260 ft
- Code IATA : LDE
- Voir les cartes d'approche


LFBT - Tarbes / Ossun

DERNIER METAR :
  • 171030Z AUTO 01005KT CAVOK 16/02 Q1021 NOSIG

METARs EXPIRÉS :
  • 171000Z AUTO 01003KT CAVOK 14/01 Q1021 NOSIG
  • 170930Z AUTO 02003KT CAVOK 12/M01 Q1021 NOSIG
  • 170900Z AUTO 36003KT CAVOK 10/M00 Q1021 NOSIG
  • 170830Z AUTO VRB03KT CAVOK 09/M02 Q1021 NOSIG
  • 170800Z AUTO 13009KT CAVOK 11/M07 Q1021 NOSIG

TAF TAF LFBT
Valide du 17 à 06h jusqu'au 18 à 06h UTC


170500Z 1706/1806 15004KT CAVOK
Pas de NOTAMs connus pour ce terrain.



MET'MAP, la Météo Aéronautique d'un coup d'oeil ! - Copyright ORBIFLY Décembre 2007 - Disclaimer

ORBIFLY MET'MAP TEAM :

Programmation & Développement : Alexandra Zaïnal
Conception & Développement : Baudouin d'Aumeries
Co-Programmation & Développement : Marc-Olivier Méhu
Soutien technique & logistique : Manuel Goepfert

Contact : metmap@orbifly.com




SOURCES & CREDITS :

   NOAA